Location: Grassland Mountain Observatory
(35.7543°N, 82.8038°W)
Time: 17:33:28
(UTC-05:00)

X-37B - Pass Details

Date: 13 December 2021
Orbit: 331 x 339 km, 45.0° (Epoch: 27 January)

Event Time Altitude Azimuth Distance (km) Brightness Sun altitude
Rises 18:45:32 0° 305° (NW) 2,097 4.9 -17.1°
Reaches altitude 10° 18:48:12 10° 333° (NNW) 1,259 3.3 -17.7°
Enters shadow 18:48:53 12° 346° (NNW) 1,130 2.9 -17.8°
